Ladysmith, WI

3:56 AM CST on December 07, 2019 (GMT -0600)
Rusk County

Weather History for KRCX - July, 2019

Change the Weather History Date:

Saturday, July 13, 2019

  Actual Average (KPBH) Record (KPBH)
Temperature  
Mean Temperature 72 °F -  
Max Temperature 81 °F 76 °F 89 °F (2006)
Min Temperature 63 °F 55 °F 44 °F (2001)
Cooling Degree Days 7    
Growing Degree Days 22 (Base 50)    
Moisture  
Dew Point 59 °F    
Average Humidity 65    
Maximum Humidity 96    
Minimum Humidity 39    
Precipitation  
Precipitation 0.00 in - - ()
Sea Level Pressure  
Sea Level Pressure 30.04 in    
Wind  
Wind Speed 5 mph (North)    
Max Wind Speed 10 mph    
Max Gust Speed -    
Visibility 10 miles    
Events      
Averages and records for this station are not official NWS values.
T = Trace of Precipitation, MM = Missing Value Source: NWS Daily Summary

Daily Weather History Graph

Daily Weather History Graph

Search for Another Location

Airport or City:

Astronomy

Jul. 13, 2019 Rise Set
Actual Time 5:27 AM CDT 8:51 PM CDT
Civil Twilight 4:51 AM CDT 9:27 PM CDT
Nautical Twilight 4:03 AM CDT 10:15 PM CDT
Astronomical Twilight 3:01 AM CDT 11:16 PM CDT
Moon 6:12 PM CDT (7/13) 2:51 AM CDT (7/13)
Length of Visible Light 16h 36m
Length of Day
15h 23m
Waxing Gibbous, 90% of the Moon is Illuminated
Jul 13
Waxing Gibbous
Jul 16
Full
Jul 24
Last Quarter
Jul 31
New
Aug 7
First Quarter

Hourly Weather History & Observations

Time (CDT) Temp. Heat Index Dew Point Humidity Pressure Visibility Wind Dir Wind Speed Gust Speed Precip Events Conditions
12:15 AM 71.8 °F - 69.8 °F 93% 29.90 in 10.0 mi West 4.6 mph - N/A   Clear
12:35 AM 71.2 °F - 69.6 °F 95% 29.91 in 10.0 mi Calm Calm - N/A   Clear
12:55 AM 70.7 °F - 69.4 °F 96% 29.91 in 10.0 mi WNW 4.6 mph - N/A   Clear
1:15 AM 69.8 °F - 68.7 °F 96% 29.92 in 10.0 mi NW 4.6 mph - N/A   Clear
1:35 AM 70.0 °F - 67.8 °F 93% 29.93 in 10.0 mi NNW 3.5 mph - N/A   Scattered Clouds
1:55 AM 70.2 °F - 66.0 °F 87% 29.93 in 10.0 mi NNW 5.8 mph - N/A   Scattered Clouds
2:15 AM 70.0 °F - 64.6 °F 83% 29.93 in 10.0 mi NW 5.8 mph - N/A   Scattered Clouds
2:35 AM 69.8 °F - 63.0 °F 79% 29.94 in 10.0 mi NNW 6.9 mph - N/A   Scattered Clouds
2:55 AM 69.8 °F - 63.1 °F 79% 29.94 in 10.0 mi North 8.1 mph - N/A   Scattered Clouds
3:15 AM 68.0 °F - 62.4 °F 82% 29.95 in 10.0 mi North 5.8 mph - N/A   Scattered Clouds
3:35 AM 67.1 °F - 62.2 °F 84% 29.95 in 10.0 mi North 4.6 mph - N/A   Clear
3:55 AM 66.2 °F - 63.7 °F 92% 29.96 in 10.0 mi NNW 4.6 mph - N/A   Scattered Clouds
4:15 AM 66.4 °F - 62.8 °F 88% 29.97 in 10.0 mi North 4.6 mph - N/A   Clear
4:35 AM 65.3 °F - 61.7 °F 88% 29.97 in 10.0 mi North 3.5 mph - N/A   Clear
4:55 AM 63.7 °F - 61.9 °F 94% 29.98 in 10.0 mi NNW 5.8 mph - N/A   Clear
5:15 AM 64.8 °F - 61.2 °F 88% 29.98 in 10.0 mi North 4.6 mph - N/A   Clear
5:35 AM 64.8 °F - 59.5 °F 83% 30.00 in 10.0 mi North 6.9 mph - N/A   Clear
5:55 AM 64.8 °F - 60.6 °F 86% 30.00 in 10.0 mi Calm Calm - N/A   Clear
6:15 AM 64.2 °F - 61.2 °F 90% 30.01 in 10.0 mi Calm Calm - N/A   Clear
6:35 AM 63.9 °F - 60.4 °F 89% 30.02 in 10.0 mi North 4.6 mph - N/A   Clear
6:55 AM 64.6 °F - 60.6 °F 87% 30.02 in 10.0 mi North 3.5 mph - N/A   Clear
7:15 AM 65.7 °F - 61.2 °F 85% 30.02 in 10.0 mi North 4.6 mph - N/A   Clear
7:35 AM 67.1 °F - 60.6 °F 80% 30.03 in 10.0 mi North 3.5 mph - N/A   Clear
7:55 AM 68.2 °F - 60.1 °F 75% 30.03 in 10.0 mi North 4.6 mph - N/A   Clear
8:15 AM 69.1 °F - 60.3 °F 73% 30.03 in 10.0 mi North 3.5 mph - N/A   Clear
8:35 AM 70.2 °F - 59.0 °F 68% 30.03 in 10.0 mi NNE 3.5 mph - N/A   Clear
8:55 AM 71.8 °F - 58.6 °F 63% 30.04 in 10.0 mi North 5.8 mph - N/A   Clear
9:15 AM 73.0 °F - 57.7 °F 59% 30.05 in 10.0 mi North 8.1 mph - N/A   Clear
9:35 AM 71.8 °F - 57.0 °F 60% 30.05 in 10.0 mi North 8.1 mph - N/A   Clear
9:55 AM 73.2 °F - 57.4 °F 57% 30.06 in 10.0 mi North 8.1 mph - N/A   Clear
10:15 AM 74.1 °F - 57.9 °F 57% 30.06 in 10.0 mi NNW 6.9 mph - N/A   Clear
10:35 AM 74.5 °F - 57.6 °F 55% 30.08 in 10.0 mi NNW 4.6 mph - N/A   Clear
10:55 AM 75.4 °F - 58.1 °F 55% 30.08 in 10.0 mi NNW 5.8 mph - N/A   Clear
11:15 AM 74.7 °F - 57.2 °F 54% 30.09 in 10.0 mi North 5.8 mph - N/A   Clear
11:35 AM 76.5 °F - 58.1 °F 53% 30.09 in 10.0 mi WNW 4.6 mph - N/A   Scattered Clouds
11:55 AM 76.3 °F - 57.7 °F 53% 30.11 in 10.0 mi Calm Calm - N/A   Scattered Clouds
12:15 PM 76.3 °F - 56.5 °F 50% 30.11 in 10.0 mi NW 6.9 mph - N/A   Clear
12:35 PM 77.5 °F - 56.8 °F 49% 30.11 in 10.0 mi West 4.6 mph - N/A   Clear
12:55 PM 78.4 °F - 58.3 °F 50% 30.10 in 10.0 mi WNW 8.1 mph - N/A   Scattered Clouds
1:15 PM 78.8 °F - 57.2 °F 47% 30.09 in 10.0 mi NW 5.8 mph - N/A   Clear
1:35 PM 78.8 °F - 57.6 °F 48% 30.08 in 10.0 mi North 5.8 mph - N/A   Clear
1:55 PM 79.7 °F - 58.3 °F 48% 30.08 in 10.0 mi North 4.6 mph - N/A   Clear
2:15 PM 79.9 °F - 57.9 °F 47% 30.07 in 10.0 mi NNW 4.6 mph - N/A   Scattered Clouds
2:35 PM 79.7 °F - 55.9 °F 44% 30.07 in 10.0 mi North 4.6 mph - N/A   Scattered Clouds
2:55 PM 80.6 °F 80.6 °F 56.5 °F 43% 30.07 in 10.0 mi NW 3.5 mph - N/A   Clear
3:15 PM 80.8 °F 80.8 °F 56.7 °F 43% 30.07 in 10.0 mi North 6.9 mph - N/A   Clear
3:35 PM 81.3 °F 81.2 °F 56.8 °F 43% 30.06 in 10.0 mi NNW 8.1 mph - N/A   Clear
3:55 PM 81.3 °F 80.8 °F 54.3 °F 39% 30.05 in 10.0 mi North 10.4 mph - N/A   Clear
4:15 PM 81.0 °F 81.0 °F 57.4 °F 44% 30.06 in 10.0 mi NNW 9.2 mph - N/A   Clear
4:35 PM 81.1 °F 81.2 °F 57.6 °F 44% 30.06 in 10.0 mi NNW 10.4 mph - N/A   Clear
4:55 PM 80.6 °F 80.3 °F 53.8 °F 39% 30.06 in 10.0 mi North 9.2 mph - N/A   Clear
5:15 PM 80.6 °F 80.4 °F 54.5 °F 40% 30.06 in 10.0 mi North 4.6 mph - N/A   Clear
5:35 PM 80.8 °F 80.5 °F 54.3 °F 40% 30.06 in 10.0 mi North 3.5 mph - N/A   Clear
5:55 PM 80.8 °F 80.4 °F 54.0 °F 39% 30.07 in 10.0 mi Calm Calm - N/A   Clear
6:15 PM 80.6 °F 80.4 °F 54.0 °F 40% 30.08 in 10.0 mi Calm Calm - N/A   Clear
6:35 PM 80.6 °F 80.4 °F 54.5 °F 40% 30.08 in 10.0 mi Calm Calm - N/A   Clear
6:55 PM 80.1 °F 80.1 °F 55.0 °F 42% 30.08 in 10.0 mi Calm Calm - N/A   Clear
7:15 PM 79.7 °F - 56.8 °F 45% 30.09 in 10.0 mi NW 4.6 mph - N/A   Clear
7:35 PM 79.0 °F - 56.5 °F 46% 30.09 in 10.0 mi NW 3.5 mph - N/A   Clear
7:55 PM 78.1 °F - 58.3 °F 50% 30.09 in 10.0 mi NW 3.5 mph - N/A   Clear
8:15 PM 77.2 °F - 58.3 °F 52% 30.09 in 10.0 mi Calm Calm - N/A   Clear
8:35 PM 76.3 °F - 59.2 °F 55% 30.10 in 10.0 mi Calm Calm - N/A   Clear
8:55 PM 73.6 °F - 62.4 °F 68% 30.10 in 10.0 mi Calm Calm - N/A   Clear
9:15 PM 70.7 °F - 62.8 °F 76% 30.10 in 10.0 mi NE 3.5 mph - N/A   Clear
9:35 PM 67.8 °F - 62.6 °F 83% 30.10 in 10.0 mi Calm Calm - N/A   Clear
9:55 PM 67.8 °F - 62.8 °F 84% 30.11 in 10.0 mi NE 3.5 mph - N/A   Clear
10:15 PM 67.1 °F - 62.1 °F 84% 30.11 in 10.0 mi ENE 5.8 mph - N/A   Scattered Clouds
10:35 PM 68.0 °F - 57.6 °F 69% 30.11 in 10.0 mi East 6.9 mph - N/A   Scattered Clouds
10:55 PM 68.2 °F - 55.8 °F 64% 30.11 in 10.0 mi East 4.6 mph - N/A   Clear
11:15 PM 67.5 °F - 54.7 °F 64% 30.12 in 10.0 mi East 4.6 mph - N/A   Clear
11:35 PM 66.2 °F - 54.0 °F 65% 30.12 in 10.0 mi East 4.6 mph - N/A   Clear
11:55 PM 65.7 °F - 54.3 °F 67% 30.12 in 10.0 mi East 5.8 mph - N/A   Clear